Location: Wallasey
(53.4265°N, 3.0662°W)
Time: 07:04:22
(UTC+00:00)

XW-2B - Pass Details

Date: 22 October 2019
Orbit: 508 x 528 km, 97.5° (Epoch: 18 November)

Event Time Altitude Azimuth Distance (km) Brightness Sun altitude
Rises 06:39:08 0° 22° (NNE) 2,631 ? -11.4°
Reaches altitude 10° 06:41:28 10° 34° (NE) 1,739 ? -11.1°
Maximum altitude 06:44:43 28° 95° (E) 985 ? -10.6°
Drops below altitude 10° 06:47:58 10° 156° (SSE) 1,725 ? -10.1°
Sets 06:50:15 0° 168° (SSE) 2,606 ? -9.8°
